Terminal Aerodrome Forecast
Issued by NWS Albany, NY

Home | Current Version | Previous Version | Text Only | Print | Product List | Glossary On
Versions: 1 2 3 4 5 6 7 8 9 10 11 12 13 14 15 16 17 18 19 20 21 22 23 24 25 26
000
FTUS41 KALY 181700 RRA
TAFPOU
TAF
KPOU 181743Z 1818/1918 31005KT P6SM SCT060
      TEMPO 1818/1822 BKN060
     FM190300 36004KT P6SM SKC
     FM191400 03006KT P6SM SKC=

USA.gov is the U.S. government's official web portal to all federal, state and local government web resources and services.